| time (UTC) | temp F | wind direction | speed MPH | gust MPH | rain 1hr in | rain 24hr in | rain mn in | humidity % | barometer mb |
| 20260904003054 | 59 | 350 | 0.0 | 2.0 | 0.01 | 0.13 | 0.02 | 91 | 1003.2 |
| 20260903234551 | 60 | 298 | 0.0 | 0.0 | 0.01 | 0.13 | 0.01 | 91 | 1003.3 |
| 20260903233050 | 60 | 298 | 0.0 | 1.0 | 0.01 | 0.13 | 0.01 | 91 | 1003.5 |
| 20260903231546 | 60 | 298 | 0.0 | 2.0 | 0.00 | 0.12 | 0.00 | 91 | 1003.8 |
| 20260903230049 | 60 | 307 | 0.0 | 2.0 | 0.00 | 0.12 | 0.00 | 91 | 1004.0 |
| 20260903224543 | 60 | 286 | 0.0 | 3.0 | 0.00 | 0.12 | 0.00 | 91 | 1004.2 |
| 20260903223042 | 61 | 282 | 1.0 | 5.0 | 0.00 | 0.12 | 0.00 | 91 | 1004.3 |
| 20260903221540 | 60 | 279 | 0.0 | 3.0 | 0.00 | 0.12 | 0.00 | 91 | 1004.5 |
| 20260903220039 | 60 | 271 | 0.0 | 3.0 | 0.01 | 0.12 | 0.12 | 90 | 1004.6 |
| 20260903214542 | 60 | 270 | 0.0 | 3.0 | 0.02 | 0.12 | 0.12 | 90 | 1004.8 |
| 20260903213034 | 61 | 282 | 1.0 | 4.0 | 0.02 | 0.12 | 0.12 | 90 | 1005.0 |
| 20260903211535 | 60 | 191 | 0.0 | 1.0 | 0.02 | 0.12 | 0.12 | 90 | 1005.1 |
| 20260903210039 | 60 | 191 | 1.0 | 4.0 | 0.02 | 0.11 | 0.11 | 90 | 1005.4 |
| 20260903204530 | 60 | 188 | 1.0 | 4.0 | 0.00 | 0.09 | 0.09 | 90 | 1005.5 |
| 20260903203028 | 61 | 211 | 1.0 | 4.0 | 0.00 | 0.09 | 0.09 | 90 | 1005.7 |
| 20260903201526 | 61 | 200 | 1.0 | 5.0 | 0.00 | 0.09 | 0.09 | 90 | 1005.9 |
| 20260903200025 | 61 | 209 | 2.0 | 6.0 | 0.00 | 0.09 | 0.09 | 90 | 1006.1 |
| 20260903194524 | 61 | 202 | 2.0 | 8.0 | 0.00 | 0.09 | 0.09 | 90 | 1006.3 |
| 20260903193022 | 60 | 213 | 2.0 | 8.0 | 0.00 | 0.09 | 0.09 | 90 | 1006.4 |
| 20260903191520 | 60 | 211 | 2.0 | 6.0 | 0.00 | 0.09 | 0.09 | 90 | 1006.7 |
| 20260903190021 | 60 | 211 | 2.0 | 9.0 | 0.00 | 0.09 | 0.09 | 89 | 1007.0 |
| 20260903184517 | 60 | 218 | 3.0 | 7.0 | 0.01 | 0.09 | 0.09 | 89 | 1007.2 |
| 20260903183015 | 60 | 189 | 2.0 | 8.0 | 0.04 | 0.09 | 0.09 | 89 | 1007.5 |
| 20260903181512 | 60 | 191 | 2.0 | 9.0 | 0.04 | 0.09 | 0.09 | 89 | 1007.7 |
| 20260903180011 | 60 | 183 | 1.0 | 6.0 | 0.05 | 0.09 | 0.09 | 88 | 1007.8 |
| 20260903174510 | 60 | 209 | 2.0 | 8.0 | 0.05 | 0.09 | 0.09 | 88 | 1007.9 |
| 20260903173016 | 59 | 192 | 1.0 | 10.0 | 0.03 | 0.06 | 0.06 | 88 | 1008.2 |
| 20260903171506 | 60 | 196 | 2.0 | 7.0 | 0.04 | 0.06 | 0.06 | 88 | 1008.4 |
| 20260903170009 | 59 | 188 | 3.0 | 13.0 | 0.03 | 0.05 | 0.05 | 88 | 1008.6 |
| 20260903164502 | 60 | 195 | 3.0 | 12.0 | 0.02 | 0.04 | 0.04 | 89 | 1008.7 |
| 20260903163100 | 60 | 216 | 5.0 | 11.0 | 0.02 | 0.02 | 0.02 | 89 | 1008.9 |
| 20260903161558 | 60 | 178 | 3.0 | 8.0 | 0.01 | 0.02 | 0.02 | 89 | 1009.1 |
| 20260903160057 | 61 | 202 | 4.0 | 13.0 | 0.01 | 0.02 | 0.02 | 89 | 1009.3 |
| 20260903154557 | 61 | 223 | 6.0 | 15.0 | 0.01 | 0.02 | 0.02 | 89 | 1009.4 |
| 20260903153055 | 62 | 224 | 5.0 | 12.0 | 0.01 | 0.01 | 0.01 | 89 | 1009.7 |
| 20260903151553 | 61 | 178 | 3.0 | 9.0 | 0.01 | 0.01 | 0.01 | 90 | 1009.9 |
| 20260903150051 | 60 | 183 | 2.0 | 6.0 | 0.01 | 0.01 | 0.01 | 92 | 1010.0 |
| 20260903144550 | 60 | 189 | 2.0 | 5.0 | 0.01 | 0.01 | 0.01 | 93 | 1010.2 |
| 20260903143105 | 60 | 166 | 2.0 | 6.0 | 0.00 | 0.00 | 0.00 | 94 | 1010.4 |
| 20260903141547 | 61 | 173 | 3.0 | 8.0 | 0.00 | 0.00 | 0.00 | 94 | 1010.5 |
| 20260903140045 | 60 | 198 | 3.0 | 8.0 | 0.00 | 0.00 | 0.00 | 93 | 1010.7 |
| 20260903134543 | 60 | 196 | 4.0 | 12.0 | 0.00 | 0.00 | 0.00 | 93 | 1010.9 |
| 20260903133043 | 60 | 195 | 3.0 | 8.0 | 0.00 | 0.00 | 0.00 | 93 | 1011.0 |
| 20260903131550 | 60 | 227 | 4.0 | 8.0 | 0.00 | 0.00 | 0.00 | 90 | 1011.1 |
| 20260903130039 | 61 | 229 | 4.0 | 9.0 | 0.00 | 0.00 | 0.00 | 88 | 1011.3 |
| 20260903124540 | 60 | 190 | 4.0 | 9.0 | 0.00 | 0.00 | 0.00 | 90 | 1011.3 |
| 20260903123041 | 60 | 205 | 4.0 | 12.0 | 0.00 | 0.00 | 0.00 | 91 | 1011.4 |
| 20260903121536 | 61 | 200 | 5.0 | 11.0 | 0.00 | 0.00 | 0.00 | 89 | 1011.4 |
| 20260903120039 | 60 | 228 | 4.0 | 13.0 | 0.00 | 0.00 | 0.00 | 89 | 1011.5 |
| 20260903114534 | 60 | 207 | 5.0 | 11.0 | 0.00 | 0.00 | 0.00 | 88 | 1011.5 |
| 20260903113041 | 61 | 236 | 4.0 | 10.0 | 0.00 | 0.00 | 0.00 | 86 | 1011.6 |
| 20260903111532 | 61 | 215 | 4.0 | 10.0 | 0.00 | 0.00 | 0.00 | 86 | 1011.8 |
| 20260903110035 | 61 | 232 | 6.0 | 9.0 | 0.00 | 0.00 | 0.00 | 84 | 1011.8 |
| 20260903104531 | 61 | 211 | 5.0 | 9.0 | 0.00 | 0.00 | 0.00 | 84 | 1011.8 |
| 20260903103030 | 61 | 223 | 4.0 | 12.0 | 0.00 | 0.00 | 0.00 | 83 | 1012.0 |
| 20260903101527 | 62 | 232 | 4.0 | 12.0 | 0.00 | 0.00 | 0.00 | 83 | 1012.0 |
| 20260903100027 | 61 | 263 | 4.0 | 10.0 | 0.00 | 0.00 | 0.00 | 81 | 1012.1 |
| 20260903094525 | 60 | 218 | 5.0 | 16.0 | 0.00 | 0.00 | 0.00 | 82 | 1012.2 |
| 20260903093029 | 60 | 236 | 4.0 | 12.0 | 0.00 | 0.00 | 0.00 | 80 | 1012.3 |
| 20260903091521 | 60 | 222 | 5.0 | 12.0 | 0.00 | 0.00 | 0.00 | 79 | 1012.3 |
| 20260903090021 | 59 | 240 | 6.0 | 12.0 | 0.00 | 0.00 | 0.00 | 81 | 1012.2 |
| 20260903084523 | 59 | 269 | 5.0 | 14.0 | 0.00 | 0.00 | 0.00 | 79 | 1012.3 |
| 20260903083018 | 58 | 248 | 4.0 | 11.0 | 0.00 | 0.00 | 0.00 | 81 | 1012.5 |
| 20260903081518 | 59 | 239 | 3.0 | 12.0 | 0.00 | 0.00 | 0.00 | 81 | 1012.4 |
| 20260903080016 | 58 | 205 | 5.0 | 11.0 | 0.00 | 0.00 | 0.00 | 80 | 1012.5 |
| 20260903074515 | 58 | 267 | 4.0 | 15.0 | 0.00 | 0.00 | 0.00 | 80 | 1012.5 |
| 20260903073014 | 58 | 248 | 4.0 | 14.0 | 0.00 | 0.00 | 0.00 | 82 | 1012.5 |
| 20260903071513 | 58 | 261 | 4.0 | 14.0 | 0.00 | 0.00 | 0.00 | 81 | 1012.5 |
| 20260903070012 | 58 | 238 | 5.0 | 16.0 | 0.00 | 0.00 | 0.00 | 81 | 1012.5 |
| 20260903064514 | 57 | 248 | 5.0 | 17.0 | 0.00 | 0.00 | 0.00 | 83 | 1012.6 |
| 20260903063010 | 57 | 228 | 5.0 | 15.0 | 0.00 | 0.00 | 0.00 | 83 | 1012.6 |
| 20260903061510 | 57 | 227 | 4.0 | 18.0 | 0.00 | 0.00 | 0.00 | 83 | 1012.6 |
| 20260903060014 | 57 | 238 | 5.0 | 18.0 | 0.00 | 0.00 | 0.00 | 83 | 1012.7 |
| 20260903054507 | 58 | 263 | 6.0 | 18.0 | 0.00 | 0.00 | 0.00 | 85 | 1012.6 |
| 20260903053004 | 57 | 234 | 8.0 | 18.0 | 0.00 | 0.00 | 0.00 | 84 | 1012.5 |
| 20260903051503 | 57 | 252 | 6.0 | 15.0 | 0.00 | 0.00 | 0.00 | 85 | 1012.6 |
| 20260903050101 | 57 | 262 | 9.0 | 18.0 | 0.00 | 0.00 | 0.00 | 84 | 1012.4 |
| 20260903044600 | 58 | 230 | 4.0 | 11.0 | 0.00 | 0.00 | 0.00 | 83 | 1012.4 |
| 20260903043058 | 58 | 257 | 6.0 | 18.0 | 0.00 | 0.00 | 0.00 | 85 | 1012.4 |
| 20260903041605 | 58 | 228 | 6.0 | 17.0 | 0.00 | 0.00 | 0.00 | 83 | 1012.3 |
| 20260903040053 | 58 | 257 | 4.0 | 19.0 | 0.00 | 0.00 | 0.00 | 84 | 1012.3 |
| 20260903034559 | 58 | 218 | 4.0 | 22.0 | 0.00 | 0.00 | 0.00 | 84 | 1012.4 |
| 20260903033048 | 58 | 218 | 6.0 | 15.0 | 0.00 | 0.00 | 0.00 | 83 | 1012.5 |
| 20260903031549 | 59 | 246 | 6.0 | 21.0 | 0.00 | 0.00 | 0.00 | 84 | 1012.5 |
| 20260903030044 | 59 | 275 | 5.0 | 15.0 | 0.00 | 0.00 | 0.00 | 87 | 1012.4 |
| 20260903024542 | 59 | 252 | 7.0 | 17.0 | 0.00 | 0.00 | 0.00 | 85 | 1012.4 |
| 20260903023039 | 59 | 248 | 5.0 | 15.0 | 0.00 | 0.00 | 0.00 | 85 | 1012.5 |
| 20260903021537 | 60 | 250 | 3.0 | 13.0 | 0.00 | 0.00 | 0.00 | 85 | 1012.6 |
| 20260903020049 | 60 | 215 | 4.0 | 13.0 | 0.00 | 0.00 | 0.00 | 85 | 1012.6 |
| 20260903014536 | 60 | 283 | 8.0 | 16.0 | 0.00 | 0.00 | 0.00 | 85 | 1012.6 |
| 20260903013034 | 60 | 232 | 3.0 | 12.0 | 0.00 | 0.00 | 0.00 | 84 | 1012.6 |
| 20260903011535 | 60 | 213 | 5.0 | 11.0 | 0.00 | 0.00 | 0.00 | 83 | 1012.6 |